utc_time,unix_time,temp,cond,salinity,tds,chla_rfu,chla_ugl,bga_rfu,bga_ugl,odo,sat,nitrate_um,nitrogen_mg,stage,area,discharge,total_discharge
2019-05-01 00:00:00+00:00,1556668801,21.222,33829.22,23.08,23.7,,,,,11.6,149.6,129.436,1.81299,1.0575,1.692,-0.03585,-0.0717
2019-05-01 00:20:00+00:00,1556670001,21.407,34254.56,23.31,23.91,,,,,12.36,160.11,128.558,1.80067,1.055,1.688,0.0604,0.1208
2019-05-01 00:40:00+00:00,1556671201,21.342,35624.74,24.38,24.9,,,,,12.4,161.46,129.206,1.80974,1.055,1.688,-0.0286,-0.0572
2019-05-01 01:00:00+00:00,1556672401,21.289,36277.34,24.9,25.38,,,,,12.54,163.63,128.42,1.79876,1.0565,1.6904,0.06765,0.1353
2019-05-01 01:20:00+00:00,1556673601,20.389,35285.43,24.66,25.15,,,,,11.29,144.63,128.102,1.79431,1.057,1.6912,0.0637,0.1274
2019-05-01 01:40:00+00:00,1556674801,20.386,35184.5,24.59,25.08,,,,,11.14,142.67,129.653,1.81601,1.057,1.6912,0.0573,0.1146
2019-05-01 02:00:00+00:00,1556676002,19.985,34551.45,24.32,24.84,,,,,10.08,127.95,133.026,1.86324,1.059,1.6944,0.0622,0.1244
2019-05-01 02:20:00+00:00,1556677201,19.771,35151.85,24.92,25.38,,,,,9.8,124.3,131.435,1.84095,1.06,1.696,0.0495,0.099
2019-05-01 02:40:00+00:00,1556678401,19.748,35052.52,24.85,25.32,,,,,9.68,122.69,129.089,1.8081,1.064,1.7024,0.0834,0.1668
2019-05-01 03:00:00+00:00,1556679602,19.6,36257.73,25.89,26.28,,,,,9.42,119.79,129.151,1.80897,1.0635,1.7016,0.0937,0.1874
2019-05-01 03:20:00+00:00,1556680801,19.528,37125.46,26.63,26.95,,,,,9.26,118.11,128.155,1.79503,1.065,1.704,0.1492,0.2984
2019-05-01 03:40:00+00:00,1556682001,19.464,42350.43,30.88,30.78,,,,,8.87,115.94,131.417,1.84071,1.066,1.7056,0.1285,0.257
2019-05-01 04:00:00+00:00,1556683202,19.319,40532.68,29.5,29.55,,,,,8.87,114.64,129.083,1.80805,1.0695,1.7112,0.06365,0.1273
2019-05-01 04:20:00+00:00,1556684402,19.29,39789.55,28.92,29.03,,,,,8.67,111.6,128.956,1.80623,1.071,1.7136,0.1114,0.2228
2019-05-01 04:40:00+00:00,1556685601,19.196,38833.74,28.21,28.39,,,,,8.41,107.64,131.537,1.84242,1.072,1.7152,0.0695,0.139
2019-05-01 05:00:00+00:00,1556686801,19.064,38299.96,27.87,28.08,,,,,8.34,106.26,128.342,1.79765,1.0735,1.7176,0.09545,0.1909
2019-05-01 05:20:00+00:00,1556688002,18.995,38325.26,27.94,28.14,,,,,8.04,102.33,127.359,1.78389,1.074,1.7184,0.0923,0.1846
2019-05-01 05:40:00+00:00,1556689201,18.779,37885.43,27.73,27.95,,,,,7.88,99.79,127.585,1.78707,1.075,1.72,0.0956,0.1912
2019-05-01 06:00:00+00:00,1556690401,18.603,39429.91,29.11,29.2,,,,,8.22,104.58,128.155,1.79503,1.076,1.7216,0.1241,0.2482
2019-05-01 06:20:00+00:00,1556691601,18.402,37954.9,28.04,28.23,,,,,8.03,101.15,130.892,1.83337,1.077,1.7232,0.1169,0.2338
2019-05-01 06:40:00+00:00,1556692801,17.955,37867.1,28.27,28.44,,,,,8.33,104.15,150.992,2.11489,1.078,1.7248,0.104,0.208
2019-05-01 07:00:00+00:00,1556694001,17.893,37745.34,28.21,28.39,,,,,8.03,100.25,150.18,2.10354,1.079,1.7264,0.08055,0.1611
2019-05-01 07:20:00+00:00,1556695202,17.801,37625.59,28.18,28.36,,,,,7.78,96.88,153.871,2.15521,1.082,1.7312,0.1093,0.2186
2019-05-01 07:40:00+00:00,1556696401,17.689,38383.28,28.89,29,,,,,7.54,94.16,157.184,2.20162,1.082,1.7312,0.0832,0.1664
2019-05-01 08:00:00+00:00,1556697602,17.622,37388.51,28.1,28.29,,,,,7.6,94.35,160.855,2.25304,1.0825,1.732,0.1012,0.2024
2019-05-01 08:20:00+00:00,1556698801,17.46,37472.73,28.29,28.46,,,,,6.89,85.25,156.755,2.19564,1.083,1.7328,0.0767,0.1534
2019-05-01 08:40:00+00:00,1556700002,17.27,37216.55,28.2,28.38,,,,,7.48,92.28,157.388,2.20448,1.083,1.7328,0.0784,0.1568
2019-05-01 09:00:00+00:00,1556701201,17.069,35801.85,27.15,27.43,,,,,6.71,81.93,156.761,2.19573,1.083,1.7328,0.0392,0.0784
2019-05-01 09:20:00+00:00,1556702402,16.844,34869.67,26.52,26.85,,,,,6.51,78.82,160.086,2.24227,1.083,1.7328,0.0506,0.1012
2019-05-01 09:40:00+00:00,1556703602,16.643,35829.76,27.46,27.71,,,,,7.06,85.61,161.001,2.25509,1.083,1.7328,0.0196,0.0392
2019-05-01 10:00:00+00:00,1556704801,16.457,36065.64,27.79,28.01,,,,,6.17,74.72,161.387,2.26053,1.083,1.7328,0.0327,0.0654
2019-05-01 10:20:00+00:00,1556706002,16.255,34762.59,26.82,27.13,,,,,4.74,56.78,161.402,2.2607,1.083,1.7328,0.0376,0.0752
2019-05-01 10:40:00+00:00,1556707202,16.115,36029.07,28,28.21,,,,,5.07,61.07,,,1.083,1.7328,0.0098,0.0196
2019-05-01 11:00:00+00:00,1556708402,15.962,34584.11,26.86,27.17,,,,,5.58,66.56,168.053,2.35387,1.0835,1.7336,0.05475,0.1095
2019-05-01 11:20:00+00:00,1556709601,15.902,34606.88,26.92,27.23,,,,,5.53,65.87,162.023,2.2694,1.083,1.7328,0.0702,0.1404
2019-05-01 11:40:00+00:00,1556710802,15.835,33991.08,26.43,26.78,,,,,4.37,51.87,158.316,2.21749,1.083,1.7328,0.0441,0.0882
2019-05-01 12:00:00+00:00,1556712001,15.738,33809.03,26.34,26.7,,,,,4.37,51.69,160.424,2.247,1.083,1.7328,0.03265,0.0653
2019-05-01 12:20:00+00:00,1556713201,15.628,33089.3,25.79,26.2,,,,,3.93,46.27,154.07,2.15798,1.085,1.736,0.0278,0.0556
2019-05-01 12:40:00+00:00,1556714401,15.56,31675.73,24.62,25.12,,,,,3.94,45.99,154.234,2.1603,1.084,1.7344,0.0229,0.0458
2019-05-01 13:00:00+00:00,1556715602,15.451,34001.11,26.7,27.03,,,,,3.81,44.94,155.01,2.17119,1.0855,1.7368,0.03685,0.0737
2019-05-01 13:20:00+00:00,1556716801,15.173,32471.7,25.56,25.98,,,,,5.21,60.59,157.559,2.20688,1.087,1.7392,0.0951,0.1902
2019-05-01 13:40:00+00:00,1556718001,15.188,32109.03,25.23,25.68,,,,,5.15,59.79,152.214,2.13202,1.087,1.7392,0.0459,0.0918
2019-05-01 14:00:00+00:00,1556719202,15.156,32470.28,25.57,25.99,,,,,5.03,58.51,120.826,1.49514,1.088,1.7408,0.02785,0.0557
2019-05-01 14:20:00+00:00,1556720401,15.051,31503.88,24.79,25.28,,,,,5.23,60.48,153.645,2.15207,1.089,1.7424,0.0673,0.1346
2019-05-01 14:40:00+00:00,1556721601,14.87,31728.24,25.1,25.57,,,,,6.02,69.45,156.529,2.19245,1.088,1.7408,0.0476,0.0952
2019-05-01 15:00:00+00:00,1556722801,14.732,32349.97,25.74,26.16,,,,,5.58,64.43,158.182,2.21559,1.0895,1.7432,0.0583,0.1166
2019-05-01 15:20:00+00:00,1556724001,14.759,33533.92,26.76,27.1,,,,,5.82,67.69,160.019,2.24136,1.09,1.744,0.0608,0.1216
2019-05-01 15:40:00+00:00,1556725201,14.861,32264.16,25.58,26.01,,,,,5.37,62.08,161.456,2.26149,1.091,1.7456,0.1053,0.2106
2019-05-01 16:00:00+00:00,1556726401,14.756,32163.25,25.56,25.99,,,,,5.72,66.08,158.637,2.22197,1.092,1.7472,0.07245,0.1449
2019-05-01 16:20:00+00:00,1556727601,14.831,32190.2,25.53,25.97,,,,,6.03,69.73,158.168,2.2154,1.091,1.7456,0.13,0.26
2019-05-01 16:40:00+00:00,1556728802,15.671,32488,25.25,25.7,,,,,5.96,69.99,156.1,2.18644,1.092,1.7472,0.0955,0.191
2019-05-01 17:00:00+00:00,1556730001,15.53,31841.62,24.78,25.27,,,,,5.49,64.09,153.828,2.15465,1.094,1.7504,0.08005,0.1601
2019-05-01 17:20:00+00:00,1556731202,16.077,31617.63,24.25,24.77,,,,,6.41,75.33,151.168,2.11735,1.093,1.7488,0.061,0.122
2019-05-01 17:40:00+00:00,1556732401,16.298,32039.38,24.48,24.98,,,,,6.81,80.53,140.657,1.87155,1.093,1.7488,0.1154,0.2308
2019-05-01 18:00:00+00:00,1556733601,17.235,33901.42,25.45,25.87,,,,,6.91,83.73,140.969,1.97452,1.0955,1.7528,0.09915,0.1983
2019-05-01 18:20:00+00:00,1556734801,17.897,34153.44,25.25,25.68,,,,,8.02,98.28,141.93,1.98798,1.092,1.7472,0.1186,0.2372
2019-05-01 18:40:00+00:00,1556736002,18.042,36800.3,27.33,27.59,,,,,8.33,103.78,150.485,2.1078,1.09,1.744,0.0937,0.1874
2019-05-01 19:00:00+00:00,1556737201,17.613,35206.21,26.3,26.64,,,,,8.2,100.62,164.897,2.30966,1.0905,1.7448,0.07975,0.1595
2019-05-01 19:20:00+00:00,1556738401,18.709,36992.02,27.05,27.33,,,,,8.95,112.71,163.746,2.29357,1.091,1.7456,0.1185,0.237
2019-05-01 19:40:00+00:00,1556739602,19.703,35480.17,25.22,25.66,,,,,10.3,130.71,160.399,2.24668,1.09,1.744,0.069,0.138
2019-05-01 20:00:00+00:00,1556740801,20.586,34742.68,24.13,24.66,,,,,11.24,144.13,156.782,2.196,1.0905,1.7448,0.0748,0.1496
2019-05-01 20:20:00+00:00,1556742001,20.894,35893.26,24.84,25.32,,,,,11.85,153.41,151.873,2.12724,1.089,1.7424,0.0328,0.0656
2019-05-01 20:40:00+00:00,1556743202,21.387,36063.77,24.68,25.18,,,,,12.07,157.52,150.361,2.10606,1.088,1.7408,0.0377,0.0754
2019-05-01 21:00:00+00:00,1556744401,21.64,39007.85,26.77,27.09,,,,,11.98,159.05,148.778,2.08388,1.088,1.7408,0.01475,0.0295
2019-05-01 21:20:00+00:00,1556745601,21.462,38268.59,26.32,26.68,,,,,11.56,152.52,153.422,2.1489,1.089,1.7424,-0.0197,-0.0394
2019-05-01 21:40:00+00:00,1556746802,21.958,37788.84,25.65,26.08,,,,,11.97,158.81,145.405,2.03663,1.09,1.744,0,0
2019-05-01 22:00:00+00:00,1556748003,21.344,39054.48,26.99,27.29,,,,,11.09,146.61,137.133,1.92075,1.088,1.7408,0.0648,0.1296
2019-05-01 22:20:00+00:00,1556749201,21.767,39948.48,27.41,27.68,,,,,11.54,154.14,132.284,1.85286,1.088,1.7408,-0.0361,-0.0722
2019-05-01 22:40:00+00:00,1556750402,21.798,40001.05,27.43,27.69,,,,,11.31,151.1,132.21,1.85182,1.082,1.7312,-0.1631,-0.3262
2019-05-01 23:00:00+00:00,1556751601,22.631,41143.83,27.77,28.01,,,,,11.79,160.3,134.614,1.88551,1.082,1.7312,-0.199,-0.398
2019-05-01 23:20:00+00:00,1556752801,23.075,39546.59,26.3,26.69,,,,,12.1,164.3,133.016,1.86313,1.077,1.7232,-0.2257,-0.4514
2019-05-01 23:40:00+00:00,1556754002,23.014,38602.95,25.64,26.08,,,,,11.77,159.11,128.975,1.80651,1.078,1.7248,-0.1202,-0.2404
2019-05-02 00:00:00+00:00,1556755201,22.751,39312.57,26.32,26.7,,,,,11.53,155.67,124.824,1.74838,1.0775,1.724,0.03405,0.0681
2019-05-02 00:20:00+00:00,1556756401,23.133,41041.95,27.38,27.66,,,,,11.81,161.58,125.276,1.75468,1.076,1.7216,0.0357,0.0714
2019-05-02 00:40:00+00:00,1556757601,23.202,40374.07,26.84,27.18,,,,,12.36,168.82,123.791,1.73391,1.077,1.7232,0,0
2019-05-02 01:00:00+00:00,1556758801,23.066,39361.48,26.17,26.57,,,,,11.56,156.81,121.697,1.70458,1.0775,1.724,0.0455,0.091
2019-05-02 01:20:00+00:00,1556760001,23.104,38562.32,25.56,26.01,,,,,11.8,159.63,118.838,1.66454,1.079,1.7264,0.0358,0.0716
2019-05-02 01:40:00+00:00,1556761201,22.746,37851.96,25.24,25.71,,,,,11.5,154.37,119.606,1.67526,1.08,1.728,0.0244,0.0488
2019-05-02 02:00:00+00:00,1556762401,22.027,37297.53,25.25,25.7,,,,,11.27,149.29,127.914,1.79164,1.0815,1.7304,0.05785,0.1157
2019-05-02 02:20:00+00:00,1556763601,21.587,35731.62,24.32,24.85,,,,,10.26,134.1,133.747,1.87336,1.082,1.7312,0.0767,0.1534
2019-05-02 02:40:00+00:00,1556764802,21.475,36637.71,25.07,25.53,,,,,9.72,127.38,134.893,1.88939,1.083,1.7328,0.0767,0.1534
2019-05-02 03:00:00+00:00,1556766002,21.329,36743.7,25.23,25.68,,,,,9.74,127.44,137.018,1.91919,1.086,1.7376,0.11465,0.2293
2019-05-02 03:20:00+00:00,1556767201,21.267,36994.64,25.46,25.89,,,,,9.52,124.58,135.793,1.90201,1.088,1.7408,0.0837,0.1674
2019-05-02 03:40:00+00:00,1556768401,21.215,40432.62,28.14,28.33,,,,,8.95,118.84,137.249,1.92242,1.089,1.7424,0.0788,0.1576
2019-05-02 04:00:00+00:00,1556769601,21.008,39838.66,27.81,28.03,,,,,8.96,118.26,135.993,1.90482,1.091,1.7456,0.08965,0.1793
2019-05-02 04:20:00+00:00,1556770801,20.806,39840.36,27.94,28.15,,,,,9.28,122.15,142.503,1.99597,1.092,1.7472,0.1038,0.2076
2019-05-02 04:40:00+00:00,1556772002,20.464,38349.4,27,27.29,,,,,8.97,116.65,146.478,2.05167,1.093,1.7488,0.0742,0.1484
2019-05-02 05:00:00+00:00,1556773201,20.214,38710.35,27.44,27.69,,,,,9.17,119.01,146.496,2.05196,1.096,1.7536,0.13145,0.2629
2019-05-02 05:20:00+00:00,1556774402,20.032,39910.77,28.51,28.66,,,,,8.87,115.53,148.574,2.08102,1.098,1.7568,0.1126,0.2252
2019-05-02 05:40:00+00:00,1556775602,19.329,37454.85,27.02,27.3,,,,,8.39,106.79,161.088,2.25631,1.099,1.7584,0.1426,0.2852
2019-05-02 06:00:00+00:00,1556776801,19.082,35687.25,25.76,26.15,,,,,8.6,108.23,165.56,2.31894,1.1,1.76,0.1311,0.2622
2019-05-02 06:20:00+00:00,1556778001,18.786,37917.26,27.75,27.97,,,,,8.24,104.36,167.295,2.34322,1.101,1.7616,0.088,0.176
2019-05-02 06:40:00+00:00,1556779201,18.717,39348.8,28.96,29.06,,,,,8.02,102.18,170.226,2.38432,1.101,1.7616,0.0997,0.1994
2019-05-02 07:00:00+00:00,1556780401,18.524,39043.41,28.85,28.96,,,,,7.99,101.3,162.178,2.27156,1.1025,1.764,0.1173,0.2346
2019-05-02 07:20:00+00:00,1556781601,18.473,36359.44,26.69,27,,,,,8.01,100.18,162.587,2.2773,1.102,1.7632,0.0931,0.1862
2019-05-02 07:40:00+00:00,1556782802,18.168,35896.43,26.51,26.83,,,,,8.04,99.9,160.161,2.24334,1.103,1.7648,0.0699,0.1398
2019-05-02 08:00:00+00:00,1556784001,18.103,38077.12,28.34,28.51,,,,,7.44,93.3,163.703,2.29293,1.106,1.7696,0.0968,0.1936
2019-05-02 08:20:00+00:00,1556785201,17.961,36420.7,27.07,27.35,,,,,7.45,92.43,165.638,2.32002,1.106,1.7696,0.0951,0.1902
2019-05-02 08:40:00+00:00,1556786401,17.856,37239.48,27.82,28.03,,,,,7.17,89.18,162.887,2.28146,1.106,1.7696,0.1051,0.2102
2019-05-02 09:00:00+00:00,1556787602,17.776,37810.66,28.35,28.51,,,,,6.36,79.31,164.939,2.31026,1.106,1.7696,0.02755,0.0551
2019-05-02 09:20:00+00:00,1556788801,,,,,,,,,,,162.617,2.27774,1.105,1.768,0.0384,0.0768
2019-05-02 09:40:00+00:00,1556790002,17.607,37091.11,27.86,28.07,,,,,5.5,68.11,162.749,2.27955,1.106,1.7696,-0.025,-0.05
2019-05-02 10:00:00+00:00,1556791202,17.467,40650.96,30.96,30.86,,,,,5.09,64.08,156.889,2.19749,1.1055,1.7688,0.01335,0.0267
2019-05-02 10:20:00+00:00,1556792402,,,,,,,,,,,153.333,2.14766,1.105,1.768,-0.02,-0.04
2019-05-02 10:40:00+00:00,1556793601,17.459,35690.48,26.8,27.1,,,,,4.88,59.93,128.163,1.79514,1.105,1.768,-0.03,-0.06
2019-05-02 11:00:00+00:00,1556794802,17.752,35270.95,26.26,26.61,,,,,6.22,76.51,117.156,1.64096,1.105,1.768,-0.0008,-0.0016
2019-05-02 11:20:00+00:00,1556796002,17.28,34958.71,26.31,26.65,,,,,4.92,59.98,125.37,1.75604,1.103,1.7648,-0.1082,-0.2164
2019-05-02 11:40:00+00:00,1556797201,17.257,36426.32,27.55,27.79,,,,,3.63,44.59,129.789,1.81792,1.099,1.7584,-0.1078,-0.2156
2019-05-02 12:00:00+00:00,1556798402,17.381,36436.29,27.47,27.72,,,,,4.4,54.09,123.334,1.72748,1.1015,1.7624,-0.0772,-0.1544
2019-05-02 12:20:00+00:00,1556799602,17.043,36391.12,27.66,27.89,,,,,4.3,52.58,129.21,1.80982,1.099,1.7584,-0.0083,-0.0166
2019-05-02 12:40:00+00:00,1556800801,16.908,36420.39,27.78,28,,,,,2.84,34.68,131.117,1.83653,1.097,1.7552,-0.0314,-0.0628
2019-05-02 13:00:00+00:00,1556802001,16.781,37920.41,29.15,29.24,,,,,4.9,60.2,130.02,1.82115,1.101,1.7616,0.0141,0.0282
2019-05-02 13:20:00+00:00,1556803202,16.664,36946.16,28.4,28.56,,,,,4.75,57.92,132.544,1.8565,1.099,1.7584,0,0
2019-05-02 13:40:00+00:00,1556804401,16.604,37614.15,29.01,29.12,,,,,3.99,48.79,131.96,1.84836,1.1,1.76,-0.0066,-0.0132
2019-05-02 14:00:00+00:00,1556805601,16.449,35335.39,27.17,27.45,,,,,4.95,59.69,132.31,1.85322,1.101,1.7616,0.08145,0.1629
2019-05-02 14:20:00+00:00,1556806802,16.334,34694.64,26.7,27.02,,,,,5.07,60.84,136.17,1.90728,1.102,1.7632,0.0532,0.1064
2019-05-02 14:40:00+00:00,1556808001,16.239,34560.02,26.65,26.98,,,,,5.03,60.18,135.127,1.8927,1.102,1.7632,0.0781,0.1562
2019-05-02 15:00:00+00:00,1556809201,16.204,34504.52,26.63,26.96,,,,,4.88,58.36,133.118,1.86453,1.1025,1.764,0.0208,0.0416
2019-05-02 15:20:00+00:00,1556810402,16.299,35392.84,27.32,27.59,,,,,3.76,45.24,133.447,1.86915,1.104,1.7664,0.0683,0.1366
2019-05-02 15:40:00+00:00,1556811601,16.453,35440.66,27.26,27.53,,,,,4.69,56.6,130.952,1.83422,1.104,1.7664,0.065,0.13
2019-05-02 16:00:00+00:00,1556812801,16.591,37672.06,29.07,29.17,,,,,4.8,58.76,131.355,1.83984,1.1045,1.7672,0.0692,0.1384
2019-05-02 16:20:00+00:00,1556814001,16.741,38139.98,29.36,29.43,,,,,4.88,59.96,131.69,1.84456,1.105,1.768,0.0734,0.1468
2019-05-02 16:40:00+00:00,1556815202,16.962,36347.21,27.68,27.91,,,,,5.1,62.29,131.123,1.83662,1.105,1.768,0.07,0.14
2019-05-02 17:00:00+00:00,1556816401,17.206,37358.37,28.37,28.53,,,,,6.08,74.93,120.497,1.68777,1.106,1.7696,0.0409,0.0818
2019-05-02 17:20:00+00:00,1556817601,17.516,40223.48,30.56,30.51,,,,,6.17,77.48,124.096,1.73819,1.106,1.7696,0.0668,0.1336
2019-05-02 17:40:00+00:00,1556818802,,,,,,,,,,,122.531,1.71623,1.107,1.7712,0.0551,0.1102
2019-05-02 18:00:00+00:00,1556820001,18.177,39329.23,29.33,29.39,,,,,8.28,104.55,123.159,1.72507,1.1045,1.7672,0.13665,0.2733
2019-05-02 18:20:00+00:00,1556821201,18.132,39940.48,29.87,29.88,,,,,8.35,105.81,122.727,1.71899,1.101,1.7616,0.0897,0.1794
2019-05-02 18:40:00+00:00,1556822401,19.406,38918.83,28.14,28.32,,,,,9.84,126.41,116.174,1.62721,1.104,1.7664,0.1066,0.2132
2019-05-02 19:00:00+00:00,1556823602,18.84,39113.57,28.68,28.81,,,,,9.3,118.49,120.693,1.6905,1.103,1.7648,0.12315,0.2463
2019-05-02 19:20:00+00:00,1556824801,20.169,38447.49,27.26,27.53,,,,,11.09,143.73,114.068,1.59772,1.103,1.7648,0.0599,0.1198
2019-05-02 19:40:00+00:00,1556826001,20.413,37668.52,26.5,26.84,,,,,11.06,143.24,118.618,1.66144,1.104,1.7664,0.0716,0.1432
2019-05-02 20:00:00+00:00,1556827202,21.069,37580.95,26.03,26.41,,,,,12.19,159.4,116.154,1.62695,1.1025,1.764,0.06815,0.1363
2019-05-02 20:20:00+00:00,1556828401,21.256,36951.42,25.43,25.87,,,,,12.18,159.29,120.056,1.68158,1.102,1.7632,0.0831,0.1662
2019-05-02 20:40:00+00:00,1556829601,22.131,36803.61,24.82,25.31,,,,,13.06,172.99,120.539,1.68834,1.102,1.7632,0.0599,0.1198
2019-05-02 21:00:00+00:00,1556830802,22.186,39456.81,26.77,27.1,,,,,12.61,169,120.559,1.68863,1.1015,1.7624,0.059,0.118
2019-05-02 21:20:00+00:00,1556832002,22.328,34986.43,23.36,23.96,,,,,12.92,170.32,119.862,1.67885,1.101,1.7616,0.0382,0.0764
2019-05-02 21:40:00+00:00,1556833201,22.529,36717.52,24.53,25.05,,,,,12.37,164.7,120.096,1.68213,1.101,1.7616,0.0681,0.1362
2019-05-02 22:00:00+00:00,1556834401,,,,,,,,,,,122.438,1.71497,1.0985,1.7576,-0.0166,-0.0332
2019-05-02 22:20:00+00:00,1556835602,22.811,38163.7,25.44,25.89,,,,,11.84,159.3,124.009,1.73697,1.102,1.7632,0,0
2019-05-02 22:40:00+00:00,1556836802,22.866,39986.96,26.76,27.1,,,,,11.74,159.23,119.363,1.67187,1.101,1.7616,0.0631,0.1262
2019-05-02 23:00:00+00:00,1556838001,22.946,37992.89,25.23,25.7,,,,,10.89,146.69,121.63,1.70364,1.1025,1.764,0.0108,0.0216
2019-05-02 23:20:00+00:00,1556839201,23.275,38609.21,25.5,25.95,,,,,11.3,153.36,118.23,1.656,1.1,1.76,0.0398,0.0796
2019-05-02 23:40:00+00:00,1556840401,22.97,40064.18,26.75,27.09,,,,,10.69,145.36,118.266,1.65654,1.101,1.7616,-0.0332,-0.0664
2019-05-03 00:00:00+00:00,1556841602,23.132,40433.78,26.93,27.25,,,,,10.52,143.53,114.228,1.59997,1.1025,1.764,-0.000799999999999999,-0.0016
2019-05-03 00:20:00+00:00,1556842802,23.15,39444.6,26.18,26.58,,,,,10.48,142.44,111.165,1.55704,1.102,1.7632,-0.005,-0.01
2019-05-03 00:40:00+00:00,1556844002,23.096,39388.13,26.17,26.57,,,,,10.42,141.47,108.83,1.52435,1.102,1.7632,0.0432,0.0864
2019-05-03 01:00:00+00:00,1556845201,22.504,39824.11,26.86,27.18,,,,,9.63,129.93,109.112,1.5283,1.1035,1.7656,0.0449,0.0898
2019-05-03 01:20:00+00:00,1556846401,22.541,39931.88,26.91,27.23,,,,,9.53,128.74,108.65,1.52183,1.102,1.7632,0.0831,0.1662
2019-05-03 01:40:00+00:00,1556847602,21.952,39008.44,26.58,26.92,,,,,9.99,133.2,123.082,1.72396,1.104,1.7664,0.04,0.08
2019-05-03 02:00:00+00:00,1556848802,21.886,39979.25,27.36,27.63,,,,,10.03,134.24,124.663,1.74614,1.1045,1.7672,0.02,0.04
2019-05-03 02:20:00+00:00,1556850002,21.749,40768.76,28.05,28.25,,,,,9.89,132.53,122.131,1.71068,1.106,1.7696,0.0818,0.1636
2019-05-03 02:40:00+00:00,1556851201,21.635,38755.29,26.58,26.92,,,,,9.78,129.63,121.374,1.70005,1.107,1.7712,0.0384,0.0768
2019-05-03 03:00:00+00:00,1556852401,21.635,40860.61,28.19,28.38,,,,,9.52,127.33,120.164,1.68309,1.1095,1.7752,0.0578,0.1156
2019-05-03 03:20:00+00:00,1556853601,21.441,40516.6,28.05,28.26,,,,,9.14,121.79,120.245,1.68425,1.112,1.7792,0.1074,0.2148
2019-05-03 03:40:00+00:00,1556854802,21.392,41191.04,28.61,28.76,,,,,8.5,113.46,122.338,1.71359,1.113,1.7808,0.0924,0.1848
2019-05-03 04:00:00+00:00,1556856001,21.193,41798.44,29.21,29.3,,,,,8.92,119.07,121.922,1.70772,1.1145,1.7832,0.05885,0.1177
2019-05-03 04:20:00+00:00,1556857202,21.083,41073.17,28.72,28.86,,,,,9.07,120.57,120.385,1.6862,1.114,1.7824,0.1009,0.2018
2019-05-03 04:40:00+00:00,1556858401,20.919,42145.2,29.67,29.71,,,,,9.41,125.4,125.557,1.75864,1.116,1.7856,0.0691,0.1382
2019-05-03 05:00:00+00:00,1556859601,20.636,41155.14,29.09,29.18,,,,,10.18,134.53,136.899,1.91747,1.117,1.7872,0.09105,0.1821
2019-05-03 05:20:00+00:00,1556860801,20.585,40640,28.72,28.85,,,,,10.21,134.47,144.703,2.02681,1.118,1.7888,0.1131,0.2262
2019-05-03 05:40:00+00:00,1556862002,20.476,41708.77,29.63,29.67,,,,,9.61,126.99,142.234,1.99222,1.119,1.7904,0.125,0.25
2019-05-03 06:00:00+00:00,1556863201,20.321,39852.11,28.27,28.45,,,,,9.14,119.4,143.02,2.0032,1.121,1.7936,0.11675,0.2335
2019-05-03 06:20:00+00:00,1556864401,20.057,38883.39,27.68,27.91,,,,,7.66,99.3,145.013,2.03117,1.124,1.7984,0.146,0.292
2019-05-03 06:40:00+00:00,1556865601,19.072,40361.57,29.54,29.58,,,,,7.79,100.28,165.637,2.32003,1.124,1.7984,0.1035,0.207
2019-05-03 07:00:00+00:00,1556866801,18.82,37485.29,27.37,27.63,,,,,8.23,104.03,187.916,2.63209,1.125,1.8,0.11975,0.2395
2019-05-03 07:20:00+00:00,1556868002,18.786,38217.07,27.99,28.19,,,,,8.41,106.68,188.699,2.64307,1.124,1.7984,0.1154,0.2308
2019-05-03 07:40:00+00:00,1556869201,18.527,38135.76,28.1,28.29,,,,,8.15,102.94,191.412,2.68106,1.124,1.7984,0.0917,0.1834
2019-05-03 08:00:00+00:00,1556870401,18.25,38412.63,28.52,28.66,,,,,8.1,101.92,198.498,2.78029,1.125,1.8,0.04925,0.0985
2019-05-03 08:20:00+00:00,1556871601,18.093,37311.98,27.72,27.94,,,,,7.86,98.17,195.474,2.73795,1.125,1.8,0.0968,0.1936
2019-05-03 08:40:00+00:00,1556872801,17.909,36932.61,27.53,27.77,,,,,8.02,99.75,200.534,2.8088,1.127,1.8032,0.114,0.228
2019-05-03 09:00:00+00:00,1556874002,17.702,36841.2,27.59,27.83,,,,,7.9,97.84,201.945,2.82859,1.128,1.8048,0.11075,0.2215
2019-05-03 09:20:00+00:00,1556875201,17.547,37552.55,28.29,28.46,,,,,7.36,91.31,199.895,2.79989,1.128,1.8048,0.1073,0.2146
2019-05-03 09:40:00+00:00,1556876401,17.281,35027.55,26.36,26.7,,,,,7.03,85.72,203.583,2.85153,1.129,1.8064,0.1125,0.225
2019-05-03 10:00:00+00:00,1556877602,17.293,34993,26.33,26.67,,,,,6.49,79.18,191.135,2.67717,1.129,1.8064,0.0341,0.0682
2019-05-03 10:20:00+00:00,1556878802,18.034,35585.32,26.34,26.68,,,,,6.25,77.34,132.816,1.86032,1.129,1.8064,0.0494,0.0988
2019-05-03 10:40:00+00:00,1556880001,17.962,35625.19,26.42,26.75,,,,,6.36,78.67,128.509,1.8,1.129,1.8064,-0.0119,-0.0238
2019-05-03 11:00:00+00:00,1556881201,17.736,36370.01,27.18,27.45,,,,,6.02,74.45,141.986,1.98873,1.124,1.7984,-0.1743,-0.3486
2019-05-03 11:20:00+00:00,1556882401,18.16,36886.62,27.32,27.58,,,,,5.89,73.48,113.707,1.59268,1.104,1.7664,-0.5547,-1.1094
2019-05-03 11:40:00+00:00,1556883602,18.135,37472.67,27.82,28.03,,,,,5.73,71.64,105.705,1.48061,1.089,1.7424,-0.7325,-1.465
2019-05-03 12:00:00+00:00,1556884802,18.318,39655.95,29.5,29.55,,,,,5.31,67.29,89.4,1.25221,1.0765,1.7224,-0.76655,-1.5331
2019-05-03 12:20:00+00:00,1556886001,18.378,39848.44,29.61,29.65,,,,,5.12,65.04,81.543,1.14214,1.063,1.7008,-0.8136,-1.6272
2019-05-03 12:40:00+00:00,1556887201,18.376,37328.49,27.54,27.78,,,,,4.99,62.61,72.234,1.01178,1.054,1.6864,-0.7778,-1.5556
2019-05-03 13:00:00+00:00,1556888401,18.478,35477.75,25.97,26.34,,,,,4.31,53.71,62.704,0.87827,1.0485,1.6776,-0.70335,-1.4067
2019-05-03 13:20:00+00:00,1556889601,18.212,35100.21,25.83,26.21,,,,,3.71,45.92,69.875,0.97871,1.048,1.6768,-0.5854,-1.1708
2019-05-03 13:40:00+00:00,1556890802,18.056,36291.33,26.9,27.2,,,,,3.74,46.44,73.548,1.03015,1.051,1.6816,-0.3371,-0.6742
2019-05-03 14:00:00+00:00,1556892001,18.032,36132.64,26.79,27.09,,,,,4.11,50.97,72.259,1.01212,1.063,1.7008,0.0192,0.0384
2019-05-03 14:20:00+00:00,1556893201,17.755,35078.98,26.1,26.46,,,,,3.85,47.28,72.208,1.0114,1.061,1.6976,-0.0096,-0.0192
2019-05-03 14:40:00+00:00,1556894401,17.727,38098.46,28.62,28.76,,,,,2.15,26.8,74.159,1.03873,1.062,1.6992,-0.0336,-0.0672
2019-05-03 15:00:00+00:00,1556895602,17.769,37269.52,27.9,28.11,,,,,4.19,52.03,77.84,1.0903,1.0625,1.7,0.05445,0.1089
2019-05-03 15:20:00+00:00,1556896801,17.943,36561.28,27.2,27.47,,,,,4.26,52.85,71.736,1.00479,1.064,1.7024,0.0273,0.0546
2019-05-03 15:40:00+00:00,1556898001,18.016,36302.96,26.94,27.23,,,,,4.4,54.58,69.284,0.97044,1.068,1.7088,0.0579,0.1158
2019-05-03 16:00:00+00:00,1556899201,18.137,37361.9,27.73,27.95,,,,,4.99,62.42,70.615,0.98909,1.0685,1.7096,0.0789,0.1578
2019-05-03 16:20:00+00:00,1556900401,18.328,36770.53,27.12,27.39,,,,,5.22,65.28,68.825,0.96403,1.07,1.712,0.0968,0.1936